This demonstration page uses our WeatherBlox Daily Observations layout. Learn more.

Left ArrowRight Arrow

30.00354, -91.81873

Hourly Observations for October 3, 2022

Temp ( °F °C ) Dew Point ( °F °C ) Humidity (%) Winds ( mph kmh ) Pressure ( in mb ) Visibility ( mi km ) Precip ( " mm )
12:53 am 00:53 Clear 61 16.1 53 11.7 75 75 N 5 7 30.08 1019 10 16 0.00 0.00
1:53 am 01:53 Clear 59 15 50 10 72 72 N 7 11 30.07 1018 10 16 0.00 0.00
2:53 am 02:53 Clear 59 15 50 10 72 72 N 7 11 30.07 1018 10 16 0.00 0.00
3:53 am 03:53 Clear 58 14.4 51 10.6 78 78 N 6 9 30.06 1018 10 16 0.00 0.00
4:53 am 04:53 Clear 58 14.4 51 10.6 78 78 N 6 9 30.07 1018 10 16 0.00 0.00
5:53 am 05:53 Clear 56 13.3 51 10.6 84 84 NNW 5 7 30.08 1019 10 16 0.00 0.00
6:53 am 06:53 Clear 55 12.8 51 10.6 86 86 Calm 30.09 1019 10 16 0.00 0.00
7:53 am 07:53 Sunny 58 14.4 53 11.7 84 84 N 3 6 30.09 1019 10 16 0.00 0.00
8:53 am 08:53 Sunny 68 20 54 12.2 61 61 NE 7 11 30.11 1020 10 16 0.00 0.00
9:53 am 09:53 Sunny 71 21.7 53 11.7 53 53 ENE 8 13 30.12 1020 10 16 0.00 0.00
10:53 am 10:53 Sunny 76 24.4 54 12.2 47 47 NNE 6 9 30.13 1020 10 16 0.00 0.00
11:53 am 11:53 Sunny 82 27.8 54 12.2 38 38 VRB 6 9 30.11 1020 10 16 0.00 0.00
12:53 pm 12:53 Sunny 83 28.3 50 10 32 32 NNE 3 6 30.09 1019 10 16 0.00 0.00
1:53 pm 13:53 Sunny 85 29.4 52 11.1 32 32 N 9 15 30.06 1018 10 16 0.00 0.00
2:53 pm 14:53 Sunny 86 30 51 10.6 30 30 N 13 20 30.04 1017 10 16 0.00 0.00
3:53 pm 15:53 Sunny 84 28.9 50 10 31 31 NNE 12 19 30.01 1016 10 16 0.00 0.00
4:53 pm 16:53 Sunny 84 28.9 52 11.1 33 33 NNE 9 15 30.01 1016 10 16 0.00 0.00
5:53 pm 17:53 Sunny 81 27.2 49 9.4 33 33 NNE 14 22 30.02 1017 10 16 0.00 0.00
6:53 pm 18:53 Clear 74 23.3 51 10.6 45 45 NNE 8 13 30.03 1017 10 16 0.00 0.00
7:53 pm 19:53 Clear 69 20.6 52 11.1 54 54 NNE 6 9 30.04 1017 10 16 0.00 0.00
8:53 pm 20:53 Clear 69 20.6 54 12.2 59 59 NNE 7 11 30.06 1018 10 16 0.00 0.00
9:53 pm 21:53 Clear 68 20 54 12.2 61 61 NNE 7 11 30.07 1018 10 16 0.00 0.00
10:53 pm 22:53 Clear 68 20 56 13.3 65 65 NE 9 15 30.07 1018 10 16 0.00 0.00
11:53 pm 23:53 Clear 67 19.4 56 13.3 68 68 NE 8 13 30.07 1018 10 16 0.00 0.00

Powered by AerisWeather